Zurück zum Katalog

EWS-G1

AktivWetterGEO
NORAD 29155·PAYLOAD·🇺🇸 United States

Gestartet May 24, 2006 von Cape Canaveral Space Force Station

Loading…

TLE

AktuellSource: Space-Track

Epoche: Sep 14, 2026, 22:00 UTC

1 29155U 06018A   26257.91732073 -.00000100  00000-0  00000-0 0  9993
2 29155   4.7602  75.2854 0059444 279.9155 258.0634  0.98786442 44136

Verfolge EWS-G1 in Echtzeit mit AllMySat

Download on the App Store